1495440000.07,53169,16.19,74122.8,16.89,-21.27,-22.73,0,*41
1495440001.29,53170,16.19,74122.5,16.91,-20.79,-22.11,0,*4E
1495440002.58,53171,16.19,74120.0,16.93,-21.67,-23.03,0,*41
1495440003.81,53172,16.19,74122.3,16.91,-21.33,-22.83,0,*48
1495440005.04,53173,16.19,74120.3,16.91,-21.33,-22.53,0,*44
1495440006.27,53174,16.19,74120.8,16.93,-22.11,-23.59,0,*49
1495440007.52,53175,16.19,74124.3,16.91,-22.17,-23.65,0,*43
1495440008.75,53176,16.19,74126.8,16.91,-22.53,-23.95,0,*4F
1495440009.98,53177,16.19,74124.8,16.93,-21.13,-22.41,0,*43
1495440011.21,53178,16.19,74126.0,16.93,-22.57,-24.05,0,*49
1495440012.41,53179,16.19,74124.3,16.95,-24.97,-26.65,0,*40
1495440013.67,53180,16.19,74124.5,16.91,-25.71,-27.35,0,*4F
1495440014.9,53181,16.25,74130.5,16.87,-23.33,-24.77,0,*4C
1495440016.13,53182,16.19,74126.3,16.87,-22.53,-23.95,0,*43
1495440017.36,53183,16.19,74124.5,16.87,-22.03,-23.33,0,*4B
1495440018.59,53184,16.19,74124.0,16.87,-22.67,-24.25,0,*4E
1495440019.83,53185,16.19,74126.0,16.87,-23.29,-24.61,0,*44
1495440021.06,53186,16.25,74130.0,16.87,-21.77,-23.03,0,*4D
1495440022.34,53187,16.19,74126.5,16.89,-20.99,-22.21,0,*42
1495440023.57,53188,16.19,74126.8,16.89,-21.09,-22.57,0,*44
1495440024.78,53189,16.19,74124.3,16.91,-23.39,-24.51,0,*4D
1495440025.98,53190,16.19,74124.3,16.91,-22.93,-24.35,0,*46
1495440027.19,53191,16.19,74124.0,16.91,-22.03,-23.43,0,*48
1495440028.42,53192,16.19,74126.5,16.91,-21.57,-22.67,0,*4E
1495440029.7,53193,16.19,74120.8,16.93,-20.35,-21.67,0,*4B
1495440030.96,53194,16.19,74126.5,16.93,-21.67,-23.09,0,*40
1495440032.18,53195,16.19,74126.8,16.95,-20.99,-22.07,0,*48
1495440033.41,53196,16.19,74126.3,16.95,-20.93,-22.21,0,*45
1495440034.61,53197,16.19,74122.3,16.95,-20.43,-21.73,0,*4D
1495440035.86,53198,16.19,74124.5,16.99,-20.15,-21.33,0,*49
1495440037.11,53199,16.19,74124.3,17.01,-20.73,-21.97,0,*46
1495440038.39,53200,16.19,74126.0,17.01,-21.67,-23.03,0,*4E
1495440039.61,53201,16.19,74124.3,17.01,-23.39,-25.13,0,*41
1495440040.82,53202,16.19,74124.5,17.01,-22.07,-23.39,0,*40
1495440042.1,53203,16.19,74122.3,17.01,-21.83,-23.23,0,*45
1495440043.35,53204,16.19,74124.0,17.05,-21.33,-22.63,0,*48
1495440044.6,53205,16.25,74130.5,17.01,-22.21,-23.59,0,*45
1495440045.85,53206,16.19,74120.8,17.01,-21.47,-22.77,0,*48
1495440047.11,53207,16.25,74130.5,17.01,-21.17,-22.47,0,*4F
1495440048.33,53208,16.19,74126.3,17.07,-21.33,-22.67,0,*42
1495440049.53,53209,16.19,74126.5,17.07,-21.93,-23.39,0,*43
1495440050.73,53210,16.19,74124.0,17.07,-23.13,-24.47,0,*4F
1495440051.96,53211,16.19,74126.5,17.05,-22.57,-23.89,0,*48
1495440053.21,53212,16.19,74126.3,17.07,-22.21,-23.65,0,*4A
1495440054.44,53213,16.25,74130.3,17.07,-21.27,-22.53,0,*4A
1495440055.69,53214,16.19,74124.8,17.05,-20.89,-22.21,0,*4F
1495440056.92,53215,16.19,74124.8,17.09,-23.33,-24.93,0,*4F
1495440058.15,53216,16.19,74130.0,17.07,-24.51,-26.13,0,*4B
1495440059.4,53217,16.25,74130.5,17.05,-21.39,-22.77,0,*45
1495440060.66,53218,16.19,74124.8,17.07,-20.99,-22.17,0,*45
1495440061.92,53219,16.19,74124.0,17.07,-20.53,-21.87,0,*48
1495440063.14,53220,16.19,74124.3,17.09,-20.93,-22.21,0,*4F
1495440064.38,53221,16.19,74126.5,17.09,-21.09,-22.47,0,*4C
1495440065.63,53222,16.19,74122.8,17.11,-21.09,-22.47,0,*46
1495440066.92,53223,16.19,74124.3,17.11,-21.27,-22.47,0,*4B
1495440068.15,53224,16.19,74124.5,17.11,-21.09,-22.53,0,*45
1495440069.42,53225,16.19,74126.0,17.13,-21.53,-22.77,0,*4F
1495440070.65,53226,16.19,74126.3,17.15,-21.47,-22.87,0,*40
1495440071.9,53227,16.19,74126.3,17.15,-20.79,-22.11,0,*42
1495440073.16,53228,16.19,74124.5,17.15,-21.93,-23.33,0,*49
1495440074.41,53229,16.19,74126.3,17.15,-22.11,-23.53,0,*47
1495440075.65,53230,16.19,74124.5,17.15,-24.61,-26.23,0,*4C
1495440076.87,53231,16.19,74128.0,17.13,-23.39,-25.03,0,*40
1495440078.13,53232,16.19,74126.5,17.11,-22.93,-24.41,0,*47
1495440079.42,53233,16.19,74124.8,17.11,-22.17,-23.49,0,*45
1495440080.68,53234,16.19,74124.5,17.11,-21.53,-22.83,0,*46
1495440081.92,53235,16.19,74126.8,17.11,-22.97,-24.47,0,*42
1495440083.15,53236,16.19,74128.3,17.13,-23.43,-24.87,0,*47
1495440084.38,53237,16.19,74124.5,17.13,-23.19,-24.57,0,*44
1495440085.59,53238,16.19,74124.3,17.09,-21.73,-22.97,0,*44
1495440086.84,53239,16.19,74126.5,17.11,-22.03,-23.49,0,*4A
1495440088.1,53240,16.19,74124.3,17.13,-21.83,-23.23,0,*41
1495440089.34,53241,16.19,74122.3,17.13,-21.23,-22.63,0,*4F
1495440090.56,53242,16.25,74128.3,17.15,-21.09,-22.41,0,*42
1495440091.82,53243,16.19,74128.0,17.13,-21.83,-23.23,0,*42
1495440093.07,53244,16.25,74128.0,17.13,-22.77,-24.15,0,*4F
1495440094.34,53245,16.19,74126.0,17.15,-23.53,-25.09,0,*43
1495440095.57,53246,16.19,74126.0,17.13,-22.73,-24.05,0,*48
1495440096.8,53247,16.19,74126.5,17.15,-21.47,-22.87,0,*47
1495440098.05,53248,16.19,74126.0,17.15,-22.67,-23.95,0,*4B
1495440099.25,53249,16.19,74122.5,17.13,-22.63,-24.05,0,*46
1495440100.51,53250,16.19,74126.3,17.15,-22.37,-23.85,0,*46
1495440101.77,53251,16.19,74126.0,17.15,-21.63,-23.03,0,*4B
1495440103.06,53252,16.19,74126.8,17.15,-21.87,-23.23,0,*40
1495440104.28,53253,16.19,74126.0,17.17,-22.11,-23.65,0,*4D
1495440105.51,53254,16.19,74124.0,17.17,-24.11,-25.61,0,*4E
1495440106.74,53255,16.19,74124.0,17.15,-21.63,-22.97,0,*43
1495440107.99,53256,16.19,74130.0,17.15,-22.03,-23.33,0,*4A
1495440109.25,53257,16.19,74126.8,17.15,-22.87,-24.21,0,*43
1495440110.49,53258,16.25,74130.5,17.13,-22.93,-24.41,0,*49
1495440111.72,53259,16.25,74128.8,17.13,-23.59,-25.03,0,*48
1495440112.98,53260,16.19,74126.0,17.15,-21.73,-23.23,0,*4A
1495440114.24,53261,16.19,74124.0,17.15,-23.03,-24.47,0,*4B
1495440115.47,53262,16.25,74128.0,17.15,-21.09,-22.53,0,*43
1495440116.7,53263,16.19,74126.3,17.15,-20.93,-22.27,0,*43
1495440117.92,53264,16.25,74124.8,17.17,-20.49,-21.73,0,*43
1495440119.15,53265,16.19,74124.0,17.19,-20.43,-21.73,0,*46
1495440120.37,53266,16.19,74124.3,17.19,-20.73,-22.07,0,*46
1495440121.61,53267,16.25,74126.8,17.23,-20.59,-21.93,0,*48
1495440122.86,53268,16.25,74124.3,17.23,-20.69,-21.97,0,*40
1495440124.09,53269,16.25,74124.3,17.27,-20.63,-22.07,0,*45
1495440125.31,53270,16.19,74122.8,17.29,-22.07,-23.49,0,*48
1495440126.57,53271,16.25,74126.8,17.29,-20.49,-21.87,0,*41
1495440127.78,53272,16.19,74126.8,17.29,-20.29,-21.57,0,*49
1495440128.98,53273,16.19,74122.5,17.33,-20.25,-21.63,0,*48
1495440130.27,53274,16.19,74120.3,17.35,-19.57,-20.83,0,*49
1495440131.53,53275,16.19,74120.8,17.35,-19.47,-20.83,0,*49
1495440132.81,53276,16.25,74124.0,17.39,-19.85,-21.23,0,*43
1495440134.01,53277,16.25,74126.8,17.41,-19.71,-21.09,0,*4E
1495440135.25,53278,16.19,74124.3,17.41,-20.59,-21.87,0,*47
1495440136.5,53279,16.19,74126.5,17.43,-20.15,-21.43,0,*44
1495440137.76,53280,16.19,74122.5,17.43,-20.93,-22.31,0,*4A
1495440139.01,53281,16.19,74126.0,17.45,-21.97,-23.49,0,*46
1495440140.24,53282,16.19,74124.3,17.45,-20.89,-22.21,0,*44
1495440141.47,53283,16.19,74126.0,17.45,-20.19,-21.47,0,*4F
1495440142.7,53284,16.19,74126.8,17.49,-20.93,-22.21,0,*45
1495440143.95,53285,16.19,74126.5,17.51,-21.17,-22.47,0,*40
1495440145.24,53286,16.19,74124.0,17.51,-21.53,-23.19,0,*49
1495440146.47,53287,16.19,74126.0,17.49,-23.33,-25.09,0,*42
1495440147.72,53288,16.19,74124.3,17.49,-22.73,-24.15,0,*44
1495440148.94,53289,16.19,74124.8,17.49,-23.69,-25.23,0,*4B
1495440150.21,53290,16.19,74124.8,17.45,-22.77,-24.21,0,*42
1495440151.44,53291,16.19,74126.8,17.43,-23.59,-25.09,0,*43
1495440152.72,53292,16.19,74126.5,17.43,-24.11,-25.81,0,*4B
1495440153.96,53293,16.19,74124.5,17.43,-23.79,-25.39,0,*40
1495440155.22,53294,16.19,74126.8,17.39,-23.43,-24.87,0,*47
1495440156.42,53295,16.19,74124.8,17.37,-23.13,-24.61,0,*45
1495440157.64,53296,16.19,74122.0,17.37,-24.47,-26.07,0,*42
1495440158.87,53297,16.19,74128.3,17.35,-22.57,-24.05,0,*46
1495440160.07,53298,16.19,74126.0,17.37,-23.13,-24.57,0,*4D
1495440161.35,53299,16.19,74124.3,17.35,-22.21,-23.49,0,*46
1495440162.61,53300,16.19,74126.8,17.35,-21.27,-22.37,0,*4A
1495440163.81,53301,16.19,74126.3,17.37,-22.07,-23.43,0,*4A
1495440165.07,53302,16.19,74126.5,17.39,-21.53,-22.63,0,*46
1495440166.27,53303,16.19,74126.5,17.41,-21.17,-22.41,0,*48
1495440167.51,53304,16.19,74124.5,17.41,-21.23,-22.63,0,*48
1495440168.71,53305,16.19,74126.0,17.41,-21.47,-22.83,0,*45
1495440169.97,53306,16.19,74126.8,17.39,-23.29,-24.61,0,*49
1495440171.18,53307,16.19,74124.8,17.41,-23.79,-25.35,0,*42
1495440172.43,53308,16.25,74128.5,17.39,-24.15,-25.91,0,*41
1495440173.66,53309,16.19,74124.3,17.39,-24.31,-25.91,0,*46
1495440174.9,53310,16.19,74124.5,17.37,-21.53,-22.87,0,*41
1495440176.18,53311,16.19,74124.0,17.39,-23.19,-24.71,0,*4D
1495440177.43,53312,16.19,74124.3,17.39,-23.03,-24.61,0,*44
1495440178.73,53313,16.19,74126.3,17.39,-24.71,-26.29,0,*49
1495440179.95,53314,16.25,74126.8,17.33,-25.39,-27.19,0,*4B
1495440181.15,53315,16.19,74124.0,17.33,-26.07,-27.77,0,*4C
1495440182.41,53316,16.19,74126.3,17.31,-24.41,-25.87,0,*40
1495440183.64,53317,16.19,74126.3,17.27,-22.87,-24.31,0,*46
1495440184.84,53318,16.19,74124.3,17.29,-22.37,-23.75,0,*4B
1495440186.07,53319,16.25,74128.5,17.29,-22.03,-23.33,0,*4F
1495440187.3,53320,16.25,74126.8,17.31,-22.53,-23.89,0,*48
1495440188.53,53321,16.25,74128.8,17.31,-22.03,-23.43,0,*4A
1495440189.76,53322,16.19,74124.0,17.33,-23.13,-24.67,0,*4A
1495440191.01,53323,16.19,74124.5,17.29,-23.49,-25.03,0,*4C
1495440192.25,53324,16.25,74124.5,17.31,-23.59,-25.23,0,*41
1495440193.45,53325,16.19,74120.0,17.29,-23.59,-25.23,0,*49
1495440194.71,53326,16.19,74122.3,17.29,-23.95,-25.45,0,*4A
1495440195.96,53327,16.19,74126.0,17.27,-23.65,-24.93,0,*40
1495440197.2,53328,16.19,74124.0,17.27,-24.05,-25.65,0,*46
1495440198.42,53329,16.25,74128.8,17.27,-25.09,-26.61,0,*4D
1495440199.65,53330,16.19,74126.8,17.23,-24.35,-25.87,0,*44
1495440200.87,53331,16.19,74122.8,17.21,-23.89,-25.49,0,*45
1495440202.1,53332,16.25,74124.8,17.21,-23.43,-25.03,0,*4E
1495440203.3,53333,16.25,74124.3,17.21,-22.87,-24.35,0,*42
1495440204.5,53334,16.19,74122.8,17.21,-22.87,-24.35,0,*45
1495440205.72,53335,16.25,74124.0,17.21,-25.19,-26.71,0,*46
1495440206.93,53336,16.19,74124.3,17.17,-22.41,-23.69,0,*46
1495440208.21,53337,16.19,74122.3,17.19,-23.29,-24.87,0,*41
1495440209.48,53338,16.19,74122.0,17.19,-24.21,-25.61,0,*48
1495440210.74,53339,16.19,74122.8,17.19,-22.17,-23.43,0,*4C
1495440211.97,53340,16.19,74126.0,17.19,-22.37,-23.89,0,*46
1495440213.2,53341,16.19,74122.8,17.21,-23.39,-24.71,0,*43
1495440214.45,53342,16.19,74122.3,17.21,-23.29,-24.83,0,*4C
1495440215.7,53343,16.19,74120.5,17.21,-22.77,-24.11,0,*4C
1495440216.95,53344,16.19,74122.0,17.19,-23.65,-25.19,0,*4B
1495440218.19,53345,16.19,74120.8,17.21,-23.85,-25.49,0,*4A
1495440219.43,53346,16.19,74126.0,17.17,-24.47,-26.13,0,*49
1495440220.67,53347,16.19,74120.3,17.17,-23.33,-24.67,0,*4D
1495440221.9,53348,16.19,74122.5,17.15,-22.97,-24.35,0,*48
1495440223.16,53349,16.25,74124.0,17.15,-21.63,-23.03,0,*43
1495440224.41,53350,16.19,74124.5,17.19,-21.27,-22.53,0,*43
1495440225.67,53351,16.19,74124.0,17.19,-21.27,-22.53,0,*42
1495440226.95,53352,16.19,74124.0,17.23,-21.23,-22.73,0,*4E
1495440228.2,53353,16.25,74124.8,17.23,-22.31,-23.89,0,*4B
1495440229.45,53354,16.19,74124.8,17.23,-23.03,-24.51,0,*4E
1495440230.71,53355,16.19,74122.5,17.21,-23.53,-25.03,0,*4E
1495440231.94,53356,16.25,74124.0,17.21,-23.03,-24.35,0,*4C
1495440233.17,53357,16.19,74126.8,17.21,-23.53,-25.13,0,*4D
1495440234.44,53358,16.19,74126.3,17.21,-24.21,-25.71,0,*44
1495440235.66,53359,16.19,74122.8,17.21,-24.51,-26.03,0,*44
1495440236.85,53360,16.19,74124.3,17.17,-25.09,-26.65,0,*47
1495440238.08,53361,16.19,74124.3,17.19,-22.37,-23.79,0,*4A
1495440239.3,53362,16.19,74126.5,17.17,-21.93,-23.33,0,*44
1495440240.53,53363,16.19,74126.0,17.17,-22.73,-24.31,0,*4D
1495440241.75,53364,16.25,74130.0,17.19,-22.83,-24.31,0,*4B
1495440243.01,53365,16.19,74124.5,17.19,-23.19,-24.61,0,*4D
1495440244.29,53366,16.19,74124.0,17.19,-21.87,-23.19,0,*43
1495440245.56,53367,16.25,74128.0,17.19,-21.97,-23.29,0,*40
1495440246.82,53368,16.19,74126.5,17.19,-21.67,-22.97,0,*44
1495440248.08,53369,16.19,74122.0,17.21,-21.03,-22.31,0,*40
1495440249.3,53370,16.19,74122.5,17.23,-21.09,-22.41,0,*47
1495440250.55,53371,16.19,74122.8,17.23,-21.83,-23.39,0,*4A
1495440251.81,53372,16.19,74126.8,17.27,-23.99,-25.49,0,*45
1495440253.07,53373,16.19,74124.5,17.23,-23.03,-24.51,0,*4B
1495440254.29,53374,16.25,74126.5,17.23,-22.63,-24.05,0,*4A
1495440255.55,53375,16.19,74126.5,17.23,-23.59,-25.03,0,*44
1495440256.77,53376,16.25,74126.8,17.21,-25.19,-26.71,0,*41
1495440257.98,53377,16.19,74124.0,17.21,-24.35,-25.87,0,*45
1495440259.21,53378,16.19,74122.3,17.19,-23.75,-25.19,0,*45
1495440260.46,53379,16.19,74124.3,17.17,-23.99,-25.45,0,*41
1495440261.67,53380,16.19,74126.3,17.17,-24.35,-25.91,0,*4F
1495440262.94,53381,16.19,74126.8,17.19,-23.49,-25.03,0,*47
1495440264.21,53382,16.19,74122.8,17.15,-24.77,-26.29,0,*49
1495440265.48,53383,16.19,74124.3,17.13,-24.71,-26.33,0,*43
1495440266.72,53384,16.25,74126.5,17.13,-24.05,-25.55,0,*44
1495440267.98,53385,16.19,74126.0,17.11,-23.65,-25.09,0,*4F
1495440269.23,53386,16.25,74126.8,17.11,-22.53,-23.95,0,*4B
1495440270.49,53387,16.19,74126.8,17.11,-21.39,-22.77,0,*48
1495440271.72,53388,16.19,74120.0,17.13,-21.13,-22.47,0,*4E
1495440272.96,53389,16.19,74126.5,17.15,-21.13,-22.53,0,*4C
1495440274.19,53390,16.19,74126.0,17.15,-20.63,-21.93,0,*4D
1495440275.45,53391,16.19,74126.0,17.19,-21.27,-22.63,0,*4D
1495440276.7,53392,16.25,74126.0,17.21,-21.67,-23.29,0,*4E
1495440277.96,53393,16.19,74126.5,17.21,-21.67,-23.03,0,*47
1495440279.16,53394,16.19,74126.8,17.21,-20.73,-22.11,0,*46
1495440280.39,53395,16.19,74122.8,17.23,-20.09,-21.63,0,*4E
1495440281.61,53396,16.19,74126.0,17.27,-20.09,-21.47,0,*4F
1495440282.86,53397,16.19,74128.0,17.29,-20.79,-22.31,0,*45
1495440284.07,53398,16.19,74126.0,17.29,-21.13,-22.53,0,*43
1495440285.35,53399,16.19,74126.0,17.31,-22.21,-23.33,0,*4E
1495440286.6,53400,16.25,74126.5,17.31,-20.29,-21.67,0,*40
1495440287.85,53401,16.25,74128.3,17.35,-22.11,-23.53,0,*49
1495440289.1,53402,16.19,74126.8,17.33,-21.83,-23.29,0,*49
1495440290.33,53403,16.25,74130.8,17.35,-20.69,-22.07,0,*46
1495440291.56,53404,16.19,74126.5,17.35,-20.63,-22.07,0,*4B
1495440292.82,53405,16.19,74124.5,17.35,-22.57,-23.99,0,*49
1495440294.03,53406,16.19,74126.8,17.37,-24.31,-26.07,0,*4C
1495440295.29,53407,16.19,74126.8,17.35,-23.53,-24.97,0,*47
1495440296.54,53408,16.19,74128.3,17.31,-22.67,-23.95,0,*4F
1495440297.74,53409,16.19,74126.5,17.33,-21.17,-22.57,0,*47
1495440299.0,53410,16.19,74126.5,17.37,-20.99,-22.47,0,*4D
1495440300.23,53411,16.19,74128.0,17.37,-21.27,-22.67,0,*4A
1495440301.48,53412,16.19,74128.8,17.35,-21.43,-22.73,0,*4C
1495440302.71,53413,16.19,74128.0,17.37,-21.27,-22.83,0,*42
1495440303.99,53414,16.19,74128.3,17.39,-22.17,-23.49,0,*4C
1495440305.25,53415,16.19,74128.3,17.39,-21.23,-22.53,0,*43
1495440306.46,53416,16.25,74132.0,17.41,-21.73,-23.09,0,*44
1495440307.69,53417,16.25,74130.0,17.41,-22.11,-23.69,0,*44
1495440308.94,53418,16.19,74128.8,17.39,-25.13,-26.77,0,*4B
1495440310.23,53419,16.25,74132.0,17.39,-24.41,-25.97,0,*41
1495440311.49,53420,16.25,74128.5,17.35,-24.61,-26.17,0,*4E
1495440312.77,53421,16.25,74130.5,17.35,-25.75,-26.93,0,*47
1495440313.97,53422,16.25,74130.8,17.33,-24.57,-26.23,0,*48
1495440315.18,53423,16.25,74130.8,17.33,-23.59,-25.09,0,*4B
1495440316.4,53424,16.19,74130.8,17.31,-26.23,-27.89,0,*4C
1495440317.65,53425,16.19,74128.0,17.27,-25.35,-26.93,0,*44
1495440318.88,53426,16.19,74128.5,17.21,-24.87,-26.49,0,*4E
1495440320.1,53427,16.25,74128.8,17.23,-22.27,-23.59,0,*45
1495440321.33,53428,16.19,74124.8,17.27,-22.83,-24.31,0,*49
1495440322.58,53429,16.25,74130.0,17.23,-21.39,-22.73,0,*4E
1495440323.78,53430,16.19,74128.8,17.29,-21.39,-22.83,0,*43
1495440325.07,53431,16.19,74124.3,17.27,-21.87,-23.19,0,*4B
1495440326.27,53432,16.19,74126.5,17.29,-21.43,-22.83,0,*4C
1495440327.5,53433,16.25,74128.5,17.31,-22.37,-23.75,0,*4C
1495440328.77,53434,16.25,74128.5,17.31,-21.53,-22.97,0,*47
1495440330.02,53435,16.19,74130.0,17.31,-22.03,-23.29,0,*44
1495440331.25,53436,16.19,74126.8,17.33,-23.13,-24.71,0,*4F
1495440332.5,53437,16.25,74130.0,17.31,-21.93,-23.33,0,*47
1495440333.74,53438,16.19,74128.0,17.31,-21.73,-22.97,0,*49
1495440334.97,53439,16.19,74128.0,17.35,-21.63,-23.09,0,*4B
1495440336.25,53440,16.19,74130.5,17.35,-22.21,-23.69,0,*46
1495440337.48,53441,16.25,74128.3,17.35,-22.93,-24.31,0,*44
1495440338.74,53442,16.19,74130.0,17.35,-23.03,-24.35,0,*4B
1495440339.96,53443,16.25,74130.3,17.33,-22.41,-23.85,0,*47
1495440341.19,53444,16.19,74126.0,17.35,-21.13,-22.53,0,*48
1495440342.45,53445,16.25,74130.3,17.35,-21.93,-23.65,0,*45
1495440343.68,53446,16.19,74128.0,17.35,-22.57,-24.05,0,*4C
1495440344.92,53447,16.19,74130.3,17.37,-23.79,-25.29,0,*4D
1495440346.17,53448,16.25,74130.3,17.35,-23.03,-24.51,0,*43
1495440347.45,53449,16.19,74130.8,17.35,-23.19,-24.67,0,*4C
1495440348.7,53450,16.19,74130.3,17.35,-22.07,-23.49,0,*41
1495440349.96,53451,16.25,74128.5,17.35,-21.27,-22.57,0,*4F
1495440351.16,53452,16.25,74132.0,17.37,-21.17,-22.57,0,*4D
1495440352.36,53453,16.25,74132.8,17.37,-21.13,-22.37,0,*4E
1495440353.62,53454,16.25,74128.8,17.39,-21.53,-22.83,0,*4C
1495440354.88,53455,16.25,74132.0,17.39,-21.13,-22.47,0,*41
1495440356.14,53456,16.25,74130.3,17.39,-21.27,-22.63,0,*43
1495440357.37,53457,16.25,74128.5,17.41,-22.93,-24.25,0,*45
1495440358.63,53458,16.19,74128.5,17.43,-22.47,-23.89,0,*40
1495440359.89,53459,16.25,74128.3,17.43,-21.67,-22.93,0,*4A
1495440361.11,53460,16.19,74124.8,17.45,-21.43,-22.73,0,*4E
1495440362.34,53461,16.19,74128.8,17.43,-21.09,-22.57,0,*41
1495440363.56,53462,16.25,74128.8,17.45,-22.27,-23.69,0,*47
1495440364.79,53463,16.25,74128.8,17.45,-22.67,-24.15,0,*4E
1495440366.02,53464,16.25,74130.8,17.43,-22.93,-24.35,0,*46
1495440367.31,53465,16.19,74126.5,17.43,-24.25,-25.97,0,*45
1495440368.59,53466,16.25,74128.8,17.43,-23.95,-25.71,0,*42
1495440369.79,53467,16.25,74130.0,17.41,-22.41,-23.89,0,*48
1495440371.03,53468,16.19,74130.0,17.41,-24.25,-25.87,0,*4B
1495440372.29,53469,16.25,74130.8,17.39,-23.79,-25.45,0,*45
1495440373.52,53470,16.19,74124.5,17.39,-22.03,-23.43,0,*41
1495440374.77,53471,16.25,74128.0,17.39,-24.87,-26.45,0,*49
1495440376.06,53472,16.25,74130.3,17.39,-24.11,-25.71,0,*41
1495440377.29,53473,16.25,74128.3,17.37,-23.43,-24.87,0,*46
1495440378.55,53474,16.25,74128.3,17.37,-22.17,-23.49,0,*44
1495440379.81,53475,16.25,74130.8,17.37,-21.53,-22.77,0,*4A
1495440381.04,53476,16.19,74126.3,17.39,-21.43,-22.63,0,*43
1495440382.29,53477,16.25,74128.3,17.39,-22.97,-24.41,0,*4E
1495440383.52,53478,16.25,74130.5,17.39,-24.57,-26.23,0,*4D
1495440384.77,53479,16.25,74130.5,17.35,-24.93,-26.33,0,*49
1495440386.04,53480,16.25,74128.5,17.35,-24.47,-25.97,0,*4B
1495440387.26,53481,16.25,74130.8,17.33,-22.57,-23.95,0,*4F
1495440388.5,53482,16.25,74130.3,17.37,-23.95,-25.61,0,*4A
1495440389.74,53483,16.25,74128.8,17.35,-23.09,-24.47,0,*49
1495440390.96,53484,16.19,74124.8,17.33,-24.67,-26.07,0,*41
1495440392.18,53485,16.25,74130.8,17.33,-23.69,-25.19,0,*45
1495440393.41,53486,16.25,74128.8,17.33,-21.97,-23.43,0,*4C
1495440394.68,53487,16.25,74128.0,17.31,-24.25,-26.03,0,*42
1495440395.91,53488,16.19,74128.0,17.31,-24.93,-26.39,0,*49
1495440397.15,53489,16.25,74130.3,17.31,-24.47,-25.91,0,*40
1495440398.39,53490,16.25,74128.8,17.27,-23.39,-24.67,0,*49
1495440399.6,53491,16.19,74130.3,17.29,-23.79,-25.13,0,*40
1495440400.85,53492,16.25,74132.0,17.29,-22.31,-23.65,0,*49
1495440402.06,53493,16.25,74128.0,17.29,-22.07,-23.43,0,*49
1495440403.26,53494,16.25,74130.3,17.29,-21.13,-22.63,0,*4B
1495440404.48,53495,16.19,74130.5,17.33,-21.39,-22.73,0,*48
1495440405.69,53496,16.25,74128.0,17.33,-21.39,-22.63,0,*4A
1495440406.92,53497,16.25,74128.0,17.35,-21.47,-22.83,0,*4A
1495440408.2,53498,16.19,74124.0,17.35,-23.23,-24.87,0,*47
1495440409.48,53499,16.25,74128.0,17.35,-23.85,-25.29,0,*4F
1495440410.71,53500,16.25,74130.3,17.33,-21.47,-22.77,0,*48
1495440411.96,53501,16.19,74126.8,17.35,-22.07,-23.33,0,*49
1495440413.21,53502,16.25,74130.8,17.35,-22.11,-23.33,0,*4D
1495440414.46,53503,16.25,74128.5,17.35,-22.11,-23.33,0,*4C
1495440415.69,53504,16.25,74130.0,17.37,-20.93,-22.21,0,*43
1495440416.92,53505,16.19,74126.8,17.37,-20.93,-22.17,0,*47
1495440418.18,53506,16.19,74126.0,17.39,-21.13,-22.47,0,*46
1495440419.43,53507,16.25,74130.5,17.43,-22.57,-23.95,0,*47
1495440420.7,53508,16.19,74126.8,17.41,-21.87,-23.23,0,*49
1495440421.9,53509,16.19,74126.0,17.41,-22.41,-23.89,0,*41
1495440423.12,53510,16.19,74126.3,17.39,-25.61,-27.07,0,*41
1495440424.33,53511,16.25,74128.5,17.41,-25.09,-26.65,0,*44
1495440425.58,53512,16.25,74128.8,17.37,-22.77,-24.15,0,*4D
1495440426.8,53513,16.19,74126.3,17.37,-22.67,-24.11,0,*49
1495440428.04,53514,16.25,74130.3,17.37,-23.99,-25.61,0,*48
1495440429.3,53515,16.19,74126.8,17.35,-24.61,-26.13,0,*4D
1495440430.54,53516,16.25,74130.3,17.33,-24.51,-25.97,0,*44
1495440431.77,53517,16.25,74128.3,17.31,-23.13,-24.61,0,*4E
1495440433.02,53518,16.25,74128.5,17.31,-22.03,-23.29,0,*4A
1495440434.22,53519,16.25,74128.0,17.33,-21.63,-22.93,0,*4C
1495440435.45,53520,16.25,74130.0,17.35,-21.13,-22.37,0,*49
1495440436.71,53521,16.19,74126.8,17.35,-20.83,-22.11,0,*44
1495440437.99,53522,16.25,74128.0,17.39,-21.23,-22.47,0,*43
1495440439.23,53523,16.25,74128.5,17.41,-21.39,-22.47,0,*46
1495440440.45,53524,16.19,74126.0,17.41,-22.27,-23.69,0,*40
1495440441.69,53525,16.25,74128.8,17.41,-21.67,-22.83,0,*43
1495440442.96,53526,16.19,74124.3,17.43,-21.33,-22.73,0,*4C
1495440444.22,53527,16.19,74124.3,17.45,-21.83,-23.23,0,*44
1495440445.48,53528,16.25,74124.8,17.43,-24.25,-25.87,0,*4C
1495440446.71,53529,16.19,74126.5,17.43,-23.13,-24.51,0,*45
1495440447.99,53530,16.25,74124.8,17.43,-23.29,-24.87,0,*4F
1495440449.23,53531,16.19,74124.5,17.41,-22.97,-24.25,0,*40
1495440450.43,53532,16.25,74124.5,17.41,-22.63,-24.05,0,*4A
1495440451.68,53533,16.19,74124.5,17.39,-23.95,-25.19,0,*40
1495440452.93,53534,16.19,74124.0,17.41,-23.23,-24.67,0,*4D
1495440454.19,53535,16.25,74126.0,17.39,-22.47,-23.75,0,*44
1495440455.44,53536,16.25,74124.5,17.39,-21.57,-22.87,0,*49
1495440456.68,53537,16.25,74124.5,17.41,-21.09,-22.47,0,*40
1495440457.9,53538,16.19,74124.5,17.41,-20.79,-22.11,0,*4A
1495440459.12,53539,16.25,74126.8,17.45,-22.07,-23.53,0,*43
1495440460.38,53540,16.19,74126.3,17.45,-24.15,-25.75,0,*4A
1495440461.61,53541,16.19,74126.0,17.41,-23.29,-24.57,0,*46
1495440462.87,53542,16.25,74126.5,17.43,-21.09,-22.47,0,*40
1495440464.1,53543,16.19,74126.8,17.45,-22.77,-24.05,0,*4D
1495440465.36,53544,16.19,74126.0,17.43,-24.11,-25.65,0,*4D
1495440466.62,53545,16.25,74128.5,17.43,-23.13,-24.41,0,*4E
1495440467.87,53546,16.25,74128.3,17.43,-22.31,-23.79,0,*40
1495440469.11,53547,16.25,74130.3,17.43,-22.73,-23.89,0,*48
1495440470.34,53548,16.25,74126.5,17.43,-22.57,-23.89,0,*41
1495440471.6,53549,16.25,74126.5,17.43,-22.47,-23.79,0,*4E
1495440472.81,53550,16.19,74126.5,17.45,-21.17,-22.53,0,*4F
1495440474.06,53551,16.19,74124.0,17.43,-22.31,-23.75,0,*4A
1495440475.3,53552,16.19,74126.0,17.45,-21.67,-23.09,0,*44
1495440476.53,53553,16.25,74130.0,17.45,-23.53,-24.97,0,*40
1495440477.73,53554,16.25,74128.5,17.45,-22.87,-24.05,0,*44
1495440478.96,53555,16.25,74126.0,17.45,-23.03,-24.31,0,*4F
1495440480.22,53556,16.25,74130.5,17.43,-22.93,-24.25,0,*47
1495440481.46,53557,16.19,74126.3,17.45,-21.27,-22.53,0,*4B
1495440482.69,53558,16.25,74130.5,17.45,-21.03,-22.53,0,*42
1495440483.93,53559,16.19,74126.8,17.49,-21.53,-22.83,0,*47
1495440485.2,53560,16.25,74126.5,17.51,-21.23,-22.73,0,*4C
1495440486.43,53561,16.25,74128.0,17.51,-22.57,-23.89,0,*49
1495440487.65,53562,16.25,74128.8,17.51,-22.03,-23.59,0,*46
1495440488.92,53563,16.25,74130.0,17.51,-21.97,-23.29,0,*4E
1495440490.16,53564,16.25,74130.5,17.51,-22.31,-23.79,0,*43
1495440491.4,53565,16.19,74128.0,17.51,-24.35,-26.03,0,*48
1495440492.66,53566,16.19,74128.3,17.49,-23.85,-25.29,0,*45
1495440493.89,53567,16.25,74128.3,17.49,-23.03,-24.47,0,*43
1495440495.11,53568,16.19,74128.3,17.45,-23.69,-25.13,0,*4C